SCP
0 0 0 0 0 0 0 0 0 0 0 0 0 0 0 0 0 0 0 0 0 0 0 0 0 0 0 0 0 0 0 0 0 0 0 0 0 0 0 0 0 0 0 0
0 0 0 0 0 0 0 0 0 0 0 0 0 0 0 0 0 0 0 0 0 0 0 0 0 0 0 0 0 0 0 0 0 0 0 0 0 0 0 0 0 0 0 0
0 0 0 0 0 0 0 0 0 0 0 0 0 -0 -0 0 0 0 0 0 0 0 0 0 0 0 0 0 0 0 0 0 0 0 0 0 0 0 0 0 0 0 0 0
0 0 0 0 0 0 0 0 0 0 0 0 0 -0 -0 0 0 0 0 0 0 0 0 0 0 0 0 0 0 0 0 0 0 0 0 0 0 0 0 0 0 0 0 0
0 0 0 0 0 0 0 0 0 0 0 0 0 0 -0 0 0 0 0 0 0 -0 -0 -0 -0 0 0 0 0 0 0 0 0 0 0 0 0 0 0 0 0 0 0 0
0 0 0 0 0 0 0 0 0 0 0 0 0 0 -0 0 0 0 0 0 0 0 0 0 0 0 0 0 0 0 0 0 0 0 0 0 0 0 0 0 0 0 0 0
0 0 0 0 0 0 0 0 0 0 0 0 0 0 -0 0 0 0 0 0 0 0 0 0 0 0 0 0 0 0 0 0 0 0 0 0 0 0 0 0 0 0 0 0
0 0 0 0 0 0 0 0 0 0 0 0 0 0 0 -0 0 0 0 0 0 0 0 0 0 0 0 0 0 0 0 0 0 0 0 0 0 0 0 0 0 0 0 0
0 0 0 0 0 0 0 0 0 0 0 0 0 0 0 0 0 -0 0 0 0 0 0 0 0 0 0 0 0 0 0 0 0 0 0 0 0 0 0 0 0 0 0 0
0 0 0 0 0 0 0 0 0 0 0 0 0 0 -0 0 0 0 0 0 0 0 0 0 0 0 0 0 0 0 0 0 0 0 0 0 0 0 0 0 0 0 0 0
0 0 0 0 0 0 0 0 0 0 0 0 0 0 0 0 0 0 0 0 0 0 0 0 0 0 0 0 0 0 0 0 0 0 0 0 0 0 0 0 0 0 0 0
0 0 0 0 0 0 0 0 0 0 0 0 0 -0 -0 -0 0 0 0 0 0 0 0 0 0 0 0 0 0 0 0 0 0 0 0 0 0 0 0 0 0 0 0 0
0 0 0 0 0 0 0 0 0 0 0 0 0 -0 0 0 0 0 0 0 0 0 0 0 0 0 0 0 0 0 0 0 0 0 0 0 0 0 0 0 0 0 0 0
0 0 0 0 0 0 0 0 0 0 0 0 0 0 0 0 0 0 0 0 0 0 0 0 0 0 0 0 0 0 0 0 0 0 0 0 0 0 0 0 0 0 0 0
0 0 0 0 0 0 0 0 0 0 0 0 0 0 0 0 0 0 0 0 0 0 0 0 0 0 0 0 0 0 0 0 0 0 0 0 0 0 0 0 0 0 0 0
0 0 0 0 0 0 0 -0 0 0 0 0 0 0 0 0 0 0 0 0 0 0 0 0 0 0 0 0 0 0 0 0 0 0 0 0 0 0 0 0 0 0 0 0
-0 0 0 0 0 0 0 -0 0 0 0 0 0 0 0 0 0 0 0 -0 -0 0 0 0 0 0 0 0 0 0 0 0 0 0 0 0 0 0 0 0 0 0 0 0
-0 -0 -0 0 0 0 0 0 0 0 0 0 0 0 0 0 0 0 0 0 0 0 0 0 0 0 0 0 0 0 0 0 0 0 0 0 0 0 0 0 0 0 0 0
0 -0 -0 -0 -0 0 0 -0 0 0 0 0 0 0 0 0 0 0 0 0 0 0 0 0 0 0 0 0 0 0 0 0 0 0 0 0 0 0 0 0 0 0 0 0
0 -0 -0 -0 0 0 0 0 0 0 0 0 0 0 0 0 0 0 0 0 0 0 0 0 0 0 0 0 0 0 0 0 0 0 0 0 0 0 0 0 0 0 0 0
0 -0 -0 -0 -0 0 0 0 0 0 0 0 0 0 0 0 0 0 0 0 0 0 0 0 0 0 0 0 0 0 0 0 0 0 0 0 0 0 0 0 0 0 0 0
0 0 -0 -0 -0 0 0 0 0 0 0 0 0 0 0 0 0 0 0 0 0 0 0 0 0 0 0 0 0 0 0 0 0 0 0 0 0 0 0 0 0 0 0 0
0 0 0 0 0 0 -0 0 -0 0 0 0 -0 0 0 0 0 0 0 0 0 0 0 0 0 0 0 0 0 0 0 0 0 0 0 0 0 0 0 0 0 0 0 0
0 0 0 0 0 0 0 0 0 0 -0 -0 -0 0 0 0 0 0 0 0 0 0 0 0 0 0 0 0 0 0 0 0 0 0 0 0 0 0 0 0 0 0 0 0
0 0 0 -0 0 -0 -0 0 0 0 0 -0 -0 -0 0 0 0 0 0 0 0 0 0 0 0 0 0 0 0 0 0 0 0 0 0 0 0 0 0 0 0 0 0 0
0 0 0 0 -0 -0 -0 -0 -0 -0 -0 0 0 0 -0 -0 -0 0 0 0 0 0 0 0 0 0 0 0 0 0 0 0 0 0 0 0 0 0 0 0 0 0 0 0
Wind_Speed_500mb
52 25 37 50 52 5 13 5 23 9 8 5 17 30 34 41 29 31 38 55 62 73 71 68 65 67 65 68 70 70 69 66 64 64 61 61 61 57 55 54 48 47 45 43
19 49 49 33 31 29 13 16 16 6 9 12 13 35 30 27 27 54 61 64 66 73 69 72 71 70 72 71 73 75 75 73 71 70 67 67 62 63 60 57 54 52 51 51
37 28 38 31 27 34 36 33 14 8 6 9 10 21 27 19 45 58 64 67 68 66 77 75 71 72 70 72 77 78 78 78 76 75 70 73 69 70 68 70 67 62 58 54
29 48 23 43 51 33 40 26 14 15 9 14 9 18 20 19 30 29 59 75 81 76 75 71 72 77 80 81 74 76 77 81 81 77 80 78 74 74 70 67 64 64 63 62
22 5 40 35 43 28 27 21 21 14 13 5 10 10 12 15 19 18 36 73 85 90 89 93 86 81 78 75 81 74 74 76 79 79 79 80 78 73 70 68 63 62 61 65
24 5 1 41 35 31 10 21 10 6 18 19 29 23 12 17 21 13 32 72 78 79 91 96 95 91 85 77 78 76 79 74 75 74 76 80 77 72 73 69 65 62 58 56
25 38 20 2 12 13 21 26 11 14 10 22 22 23 44 14 13 21 31 65 74 77 78 83 101 99 86 82 79 77 74 78 78 73 74 74 74 72 70 69 63 60 56 54
24 19 30 26 19 13 56 25 6 18 13 18 11 23 14 25 55 70 65 63 50 50 67 82 73 75 84 87 84 79 74 68 71 78 75 70 71 70 65 67 64 60 59 54
21 28 6 17 26 30 13 26 15 10 6 6 11 17 18 19 21 34 51 65 57 53 53 65 65 61 59 71 85 87 83 76 72 73 73 73 71 68 66 66 62 60 58 55
5 7 12 10 16 34 32 19 21 7 10 8 12 14 22 24 38 29 26 49 73 58 47 48 52 52 54 56 72 70 71 67 64 65 71 73 72 69 68 68 65 62 58 54
6 3 4 10 27 39 20 19 14 11 9 12 7 17 15 28 23 22 29 52 65 70 43 34 32 34 36 45 61 63 66 67 66 62 63 62 63 62 63 64 62 62 59 57
17 6 20 21 6 7 36 37 41 13 9 8 1 28 9 17 13 7 30 45 39 62 64 42 35 35 35 39 43 46 54 63 61 55 53 52 52 54 57 58 58 57 57 55
24 13 7 6 13 19 11 38 48 30 2 22 15 25 8 8 11 20 41 60 50 40 53 49 42 39 40 40 39 40 40 43 49 49 47 45 45 47 49 50 50 51 53 52
42 7 21 34 18 12 18 37 50 47 29 26 37 67 27 12 12 11 22 34 37 42 55 56 51 43 40 41 40 37 35 34 33 33 33 34 36 39 42 43 44 45 46 47
17 17 21 38 32 11 24 26 41 57 60 50 66 63 54 19 12 17 22 20 26 34 51 52 49 46 43 39 36 34 32 32 31 31 30 30 30 31 31 31 29 30 31 33
1 3 16 42 43 29 28 27 22 45 49 48 58 53 21 47 42 20 28 33 36 41 48 53 49 44 42 39 36 35 30 26 25 23 22 22 22 21 22 23 23 22 21 22
13 3 5 11 37 39 45 50 41 36 53 53 52 73 11 13 19 38 36 41 49 50 53 55 55 50 41 37 34 32 32 31 28 27 26 24 23 24 24 22 21 20 21 21
12 11 3 9 21 35 26 37 47 45 57 60 55 42 40 31 62 77 83 77 69 61 64 63 58 50 43 43 43 43 41 37 34 32 28 27 26 25 24 23 20 16 15 14
8 7 5 6 6 20 10 15 30 36 65 69 71 71 17 12 27 44 72 74 74 72 71 65 60 54 47 47 47 46 44 39 36 35 33 32 30 29 26 21 15 12 11 9
13 4 5 5 3 9 9 9 26 18 33 40 62 69 51 29 13 40 80 66 66 71 71 65 56 54 53 51 49 48 44 41 40 39 37 35 34 30 26 20 14 11 11 10
12 11 20 15 10 16 21 12 29 24 31 55 72 82 46 33 72 63 57 73 73 81 76 75 71 68 62 58 55 50 45 43 39 41 39 38 36 30 24 19 18 18 15 13
19 15 10 9 7 17 8 5 27 15 26 43 20 75 60 98 105 86 90 82 90 82 80 77 78 69 68 63 56 49 45 43 43 42 40 36 30 26 22 22 23 20 18 19
6 13 9 17 17 13 20 20 44 54 41 38 50 32 44 79 88 84 87 90 90 96 90 78 86 74 73 70 62 51 46 45 44 41 37 34 33 32 30 25 23 21 22 17
8 11 6 4 12 21 50 51 50 52 59 70 65 61 56 47 66 82 82 91 91 87 79 73 81 77 76 72 61 51 43 44 42 41 40 38 36 35 29 26 24 21 21 19
10 9 10 21 15 33 63 70 68 65 62 54 60 67 78 60 61 67 73 90 94 89 70 72 77 79 81 72 62 54 48 46 43 42 41 41 38 34 32 31 30 26 25 22
16 21 15 21 21 22 27 47 62 56 58 54 68 68 65 63 59 58 66 72 78 86 84 84 80 79 76 68 59 56 52 48 47 46 45 43 39 35 33 34 37 34 26 25
Wind_Direction_500mb
189 200 205 205 213 219 150 198 226 174 207 178 233 246 240 228 229 243 245 245 241 242 244 241 239 237 238 238 237 236 235 235 235 234 230 233 236 238 240 239 241 243 244 246
228 211 214 217 214 225 230 213 231 273 200 183 257 252 251 246 229 242 246 249 249 246 244 243 242 240 239 240 241 239 237 237 237 237 238 241 242 246 247 250 250 250 248 249
224 229 222 207 209 219 229 224 201 225 136 213 317 264 259 251 239 245 251 256 255 253 246 243 242 241 242 240 240 240 239 238 239 239 241 243 245 247 249 248 248 249 251 251
229 230 217 223 215 205 219 202 198 199 177 246 155 273 247 230 232 225 236 247 252 249 245 243 242 244 246 247 246 243 242 240 240 240 241 243 246 249 253 255 256 256 255 256
217 266 220 242 223 196 227 188 187 177 203 206 222 268 253 194 230 240 223 239 245 248 246 245 244 244 246 246 244 244 242 242 242 240 242 246 247 252 256 259 261 259 258 256
249 357 266 223 241 204 150 186 149 155 205 234 219 215 226 220 214 234 227 241 242 243 242 242 246 248 248 246 239 241 242 243 242 242 241 244 246 249 254 256 258 262 263 262
223 238 220 231 215 198 211 180 191 197 206 234 189 211 245 249 244 229 230 240 245 242 242 242 244 245 242 237 236 236 240 242 243 243 243 242 246 249 254 259 262 264 266 264
215 227 183 193 218 221 205 195 193 194 183 227 136 230 238 228 240 249 252 255 257 247 244 243 246 243 242 238 234 232 235 241 243 242 244 245 246 248 253 258 262 264 268 271
189 236 132 182 195 213 199 207 173 103 352 76 199 274 304 274 273 260 257 253 249 243 244 239 237 238 240 235 228 231 234 238 241 242 242 245 247 249 254 258 264 267 268 270
260 279 190 214 205 225 224 190 194 179 169 232 244 260 235 208 224 241 237 234 242 244 247 239 231 229 235 233 222 227 230 234 240 241 241 245 250 253 256 259 262 267 270 269
121 144 286 133 200 210 210 212 223 195 170 202 230 249 198 203 222 225 244 246 244 234 241 235 222 217 219 216 218 226 231 235 234 237 239 243 248 252 255 258 261 261 263 265
187 181 248 233 249 300 227 224 214 227 203 231 249 257 200 216 235 325 279 266 264 247 231 229 222 212 207 206 210 221 229 231 231 235 235 239 243 245 247 251 255 258 261 263
175 203 227 281 243 225 242 238 225 206 230 210 209 248 190 253 267 242 255 254 265 251 218 214 218 217 218 218 216 217 219 220 224 227 229 233 238 243 249 253 256 258 261 264
169 205 216 228 236 163 215 230 226 210 218 226 224 249 229 205 234 275 249 248 254 235 215 214 218 218 213 210 210 210 211 212 214 216 222 228 235 241 246 249 253 257 260 262
174 231 211 243 257 205 210 216 230 217 218 217 233 230 238 249 238 237 236 216 219 207 205 217 218 215 210 206 203 202 203 204 205 208 213 218 224 231 237 243 251 257 261 263
121 301 242 245 237 235 240 226 237 267 223 229 248 258 236 224 245 238 213 194 198 205 209 211 212 204 195 186 184 181 184 189 191 192 198 206 214 220 227 230 233 240 249 257
156 101 324 294 250 237 242 236 227 237 254 227 235 238 161 207 219 231 233 218 208 205 206 203 199 196 193 188 187 191 192 197 200 205 209 214 219 222 226 230 236 246 255 262
148 131 164 276 305 214 236 224 218 227 240 240 245 255 226 206 221 231 235 239 222 210 207 203 201 200 194 191 190 191 197 202 209 218 221 222 224 226 229 233 240 249 250 246
123 133 171 233 247 283 248 228 187 192 239 221 229 242 222 225 205 238 229 228 226 215 212 204 200 191 191 192 195 200 206 212 221 227 228 228 229 230 232 231 228 220 208 205
146 216 155 132 288 292 295 282 215 206 261 212 223 238 226 140 228 237 225 229 228 227 221 208 201 203 201 199 204 209 214 220 228 229 228 229 231 231 228 221 212 209 202 185
169 187 206 208 231 262 263 273 175 159 232 241 222 233 208 204 223 233 221 230 233 232 226 212 212 212 203 203 206 209 217 227 230 228 226 227 227 222 217 211 199 201 185 168
181 181 189 200 204 281 236 291 188 258 299 286 231 237 220 223 233 234 236 233 236 239 232 221 216 208 204 206 209 213 224 227 226 222 222 219 216 216 211 206 204 192 183 177
223 201 186 187 206 227 193 237 258 297 309 332 343 344 243 238 237 234 234 232 234 236 241 226 217 211 207 209 214 220 227 228 222 218 215 211 210 208 202 201 190 179 172 174
238 200 217 237 231 238 266 271 270 294 290 292 292 305 322 304 266 244 237 233 230 232 232 224 212 211 210 211 216 222 222 218 211 211 210 206 202 197 187 175 162 169 170 171
205 153 221 255 291 302 281 276 286 293 300 297 295 285 288 292 295 271 251 235 231 231 225 211 210 210 210 210 214 216 211 207 206 206 203 196 191 188 180 175 170 174 175 176
206 226 231 256 218 241 269 301 311 313 313 315 302 294 286 289 282 279 261 252 239 233 226 219 211 208 207 209 209 206 205 202 200 197 193 191 185 181 179 181 176 173 181 174
Wind_Speed_850mb
52 25 37 50 52 5 13 5 23 9 8 5 17 30 34 41 29 31 38 55 62 73 71 68 65 67 65 68 70 70 69 66 64 64 61 61 61 57 55 54 48 47 45 43
19 49 49 33 31 29 13 16 16 6 9 12 13 35 30 27 27 54 61 64 66 73 69 72 71 70 72 71 73 75 75 73 71 70 67 67 62 63 60 57 54 52 51 51
37 28 38 31 27 34 36 33 14 8 6 9 10 21 27 19 45 58 64 67 68 66 77 75 71 72 70 72 77 78 78 78 76 75 70 73 69 70 68 70 67 62 58 54
29 48 23 43 51 33 40 26 14 15 9 14 9 18 20 19 30 29 59 75 81 76 75 71 72 77 80 81 74 76 77 81 81 77 80 78 74 74 70 67 64 64 63 62
22 5 40 35 43 28 27 21 21 14 13 5 10 10 12 15 19 18 36 73 85 90 89 93 86 81 78 75 81 74 74 76 79 79 79 80 78 73 70 68 63 62 61 65
24 5 1 41 35 31 10 21 10 6 18 19 29 23 12 17 21 13 32 72 78 79 91 96 95 91 85 77 78 76 79 74 75 74 76 80 77 72 73 69 65 62 58 56
25 38 20 2 12 13 21 26 11 14 10 22 22 23 44 14 13 21 31 65 74 77 78 83 101 99 86 82 79 77 74 78 78 73 74 74 74 72 70 69 63 60 56 54
24 19 30 26 19 13 56 25 6 18 13 18 11 23 14 25 55 70 65 63 50 50 67 82 73 75 84 87 84 79 74 68 71 78 75 70 71 70 65 67 64 60 59 54
21 28 6 17 26 30 13 26 15 10 6 6 11 17 18 19 21 34 51 65 57 53 53 65 65 61 59 71 85 87 83 76 72 73 73 73 71 68 66 66 62 60 58 55
5 7 12 10 16 34 32 19 21 7 10 8 12 14 22 24 38 29 26 49 73 58 47 48 52 52 54 56 72 70 71 67 64 65 71 73 72 69 68 68 65 62 58 54
6 3 4 10 27 39 20 19 14 11 9 12 7 17 15 28 23 22 29 52 65 70 43 34 32 34 36 45 61 63 66 67 66 62 63 62 63 62 63 64 62 62 59 57
17 6 20 21 6 7 36 37 41 13 9 8 1 28 9 17 13 7 30 45 39 62 64 42 35 35 35 39 43 46 54 63 61 55 53 52 52 54 57 58 58 57 57 55
24 13 7 6 13 19 11 38 48 30 2 22 15 25 8 8 11 20 41 60 50 40 53 49 42 39 40 40 39 40 40 43 49 49 47 45 45 47 49 50 50 51 53 52
42 7 21 34 18 12 18 37 50 47 29 26 37 67 27 12 12 11 22 34 37 42 55 56 51 43 40 41 40 37 35 34 33 33 33 34 36 39 42 43 44 45 46 47
17 17 21 38 32 11 24 26 41 57 60 50 66 63 54 19 12 17 22 20 26 34 51 52 49 46 43 39 36 34 32 32 31 31 30 30 30 31 31 31 29 30 31 33
1 3 16 42 43 29 28 27 22 45 49 48 58 53 21 47 42 20 28 33 36 41 48 53 49 44 42 39 36 35 30 26 25 23 22 22 22 21 22 23 23 22 21 22
13 3 5 11 37 39 45 50 41 36 53 53 52 73 11 13 19 38 36 41 49 50 53 55 55 50 41 37 34 32 32 31 28 27 26 24 23 24 24 22 21 20 21 21
12 11 3 9 21 35 26 37 47 45 57 60 55 42 40 31 62 77 83 77 69 61 64 63 58 50 43 43 43 43 41 37 34 32 28 27 26 25 24 23 20 16 15 14
8 7 5 6 6 20 10 15 30 36 65 69 71 71 17 12 27 44 72 74 74 72 71 65 60 54 47 47 47 46 44 39 36 35 33 32 30 29 26 21 15 12 11 9
13 4 5 5 3 9 9 9 26 18 33 40 62 69 51 29 13 40 80 66 66 71 71 65 56 54 53 51 49 48 44 41 40 39 37 35 34 30 26 20 14 11 11 10
12 11 20 15 10 16 21 12 29 24 31 55 72 82 46 33 72 63 57 73 73 81 76 75 71 68 62 58 55 50 45 43 39 41 39 38 36 30 24 19 18 18 15 13
19 15 10 9 7 17 8 5 27 15 26 43 20 75 60 98 105 86 90 82 90 82 80 77 78 69 68 63 56 49 45 43 43 42 40 36 30 26 22 22 23 20 18 19
6 13 9 17 17 13 20 20 44 54 41 38 50 32 44 79 88 84 87 90 90 96 90 78 86 74 73 70 62 51 46 45 44 41 37 34 33 32 30 25 23 21 22 17
8 11 6 4 12 21 50 51 50 52 59 70 65 61 56 47 66 82 82 91 91 87 79 73 81 77 76 72 61 51 43 44 42 41 40 38 36 35 29 26 24 21 21 19
10 9 10 21 15 33 63 70 68 65 62 54 60 67 78 60 61 67 73 90 94 89 70 72 77 79 81 72 62 54 48 46 43 42 41 41 38 34 32 31 30 26 25 22
16 21 15 21 21 22 27 47 62 56 58 54 68 68 65 63 59 58 66 72 78 86 84 84 80 79 76 68 59 56 52 48 47 46 45 43 39 35 33 34 37 34 26 25
Wind_Direction_850mb
189 200 205 205 213 219 150 198 226 174 207 178 233 246 240 228 229 243 245 245 241 242 244 241 239 237 238 238 237 236 235 235 235 234 230 233 236 238 240 239 241 243 244 246
228 211 214 217 214 225 230 213 231 273 200 183 257 252 251 246 229 242 246 249 249 246 244 243 242 240 239 240 241 239 237 237 237 237 238 241 242 246 247 250 250 250 248 249
224 229 222 207 209 219 229 224 201 225 136 213 317 264 259 251 239 245 251 256 255 253 246 243 242 241 242 240 240 240 239 238 239 239 241 243 245 247 249 248 248 249 251 251
229 230 217 223 215 205 219 202 198 199 177 246 155 273 247 230 232 225 236 247 252 249 245 243 242 244 246 247 246 243 242 240 240 240 241 243 246 249 253 255 256 256 255 256
217 266 220 242 223 196 227 188 187 177 203 206 222 268 253 194 230 240 223 239 245 248 246 245 244 244 246 246 244 244 242 242 242 240 242 246 247 252 256 259 261 259 258 256
249 357 266 223 241 204 150 186 149 155 205 234 219 215 226 220 214 234 227 241 242 243 242 242 246 248 248 246 239 241 242 243 242 242 241 244 246 249 254 256 258 262 263 262
223 238 220 231 215 198 211 180 191 197 206 234 189 211 245 249 244 229 230 240 245 242 242 242 244 245 242 237 236 236 240 242 243 243 243 242 246 249 254 259 262 264 266 264
215 227 183 193 218 221 205 195 193 194 183 227 136 230 238 228 240 249 252 255 257 247 244 243 246 243 242 238 234 232 235 241 243 242 244 245 246 248 253 258 262 264 268 271
189 236 132 182 195 213 199 207 173 103 352 76 199 274 304 274 273 260 257 253 249 243 244 239 237 238 240 235 228 231 234 238 241 242 242 245 247 249 254 258 264 267 268 270
260 279 190 214 205 225 224 190 194 179 169 232 244 260 235 208 224 241 237 234 242 244 247 239 231 229 235 233 222 227 230 234 240 241 241 245 250 253 256 259 262 267 270 269
121 144 286 133 200 210 210 212 223 195 170 202 230 249 198 203 222 225 244 246 244 234 241 235 222 217 219 216 218 226 231 235 234 237 239 243 248 252 255 258 261 261 263 265
187 181 248 233 249 300 227 224 214 227 203 231 249 257 200 216 235 325 279 266 264 247 231 229 222 212 207 206 210 221 229 231 231 235 235 239 243 245 247 251 255 258 261 263
175 203 227 281 243 225 242 238 225 206 230 210 209 248 190 253 267 242 255 254 265 251 218 214 218 217 218 218 216 217 219 220 224 227 229 233 238 243 249 253 256 258 261 264
169 205 216 228 236 163 215 230 226 210 218 226 224 249 229 205 234 275 249 248 254 235 215 214 218 218 213 210 210 210 211 212 214 216 222 228 235 241 246 249 253 257 260 262
174 231 211 243 257 205 210 216 230 217 218 217 233 230 238 249 238 237 236 216 219 207 205 217 218 215 210 206 203 202 203 204 205 208 213 218 224 231 237 243 251 257 261 263
121 301 242 245 237 235 240 226 237 267 223 229 248 258 236 224 245 238 213 194 198 205 209 211 212 204 195 186 184 181 184 189 191 192 198 206 214 220 227 230 233 240 249 257
156 101 324 294 250 237 242 236 227 237 254 227 235 238 161 207 219 231 233 218 208 205 206 203 199 196 193 188 187 191 192 197 200 205 209 214 219 222 226 230 236 246 255 262
148 131 164 276 305 214 236 224 218 227 240 240 245 255 226 206 221 231 235 239 222 210 207 203 201 200 194 191 190 191 197 202 209 218 221 222 224 226 229 233 240 249 250 246
123 133 171 233 247 283 248 228 187 192 239 221 229 242 222 225 205 238 229 228 226 215 212 204 200 191 191 192 195 200 206 212 221 227 228 228 229 230 232 231 228 220 208 205
146 216 155 132 288 292 295 282 215 206 261 212 223 238 226 140 228 237 225 229 228 227 221 208 201 203 201 199 204 209 214 220 228 229 228 229 231 231 228 221 212 209 202 185
169 187 206 208 231 262 263 273 175 159 232 241 222 233 208 204 223 233 221 230 233 232 226 212 212 212 203 203 206 209 217 227 230 228 226 227 227 222 217 211 199 201 185 168
181 181 189 200 204 281 236 291 188 258 299 286 231 237 220 223 233 234 236 233 236 239 232 221 216 208 204 206 209 213 224 227 226 222 222 219 216 216 211 206 204 192 183 177
223 201 186 187 206 227 193 237 258 297 309 332 343 344 243 238 237 234 234 232 234 236 241 226 217 211 207 209 214 220 227 228 222 218 215 211 210 208 202 201 190 179 172 174
238 200 217 237 231 238 266 271 270 294 290 292 292 305 322 304 266 244 237 233 230 232 232 224 212 211 210 211 216 222 222 218 211 211 210 206 202 197 187 175 162 169 170 171
205 153 221 255 291 302 281 276 286 293 300 297 295 285 288 292 295 271 251 235 231 231 225 211 210 210 210 210 214 216 211 207 206 206 203 196 191 188 180 175 170 174 175 176
206 226 231 256 218 241 269 301 311 313 313 315 302 294 286 289 282 279 261 252 239 233 226 219 211 208 207 209 209 206 205 202 200 197 193 191 185 181 179 181 176 173 181 174